Time,TemperatureF,DewpointF,PressureIn,WindDirection,WindDirectionDegrees,WindSpeedMPH,WindSpeedGustMPH,Humidity,HourlyPrecipIn,Conditions,Clouds,dailyrainin,SoftwareType,DateUTC
2013-07-11 00:02:00,64.0,54.0,30.24,ENE,67,0.0,0.0,71,-99.99,,,-99.99,,2013-07-11 05:02:00,
2013-07-11 00:12:00,63.0,54.0,30.25,ENE,67,0.0,0.0,72,-99.99,,,-99.99,,2013-07-11 05:12:00,
2013-07-11 00:22:00,63.0,55.0,30.26,ENE,67,0.0,0.0,74,-99.99,,,-99.99,,2013-07-11 05:22:00,
2013-07-11 00:32:00,63.0,55.0,30.26,ENE,67,0.0,0.0,74,-99.99,,,-99.99,,2013-07-11 05:32:00,
2013-07-11 00:43:00,62.0,55.0,30.26,ENE,67,0.0,0.0,77,-99.99,,,-99.99,,2013-07-11 05:43:00,
2013-07-11 00:52:00,62.0,55.0,30.27,ENE,67,0.0,0.0,78,-99.99,,,-99.99,,2013-07-11 05:52:00,
2013-07-11 01:01:00,62.0,55.0,30.27,ENE,67,0.0,0.0,78,-99.99,,,-99.99,,2013-07-11 06:01:00,
2013-07-11 01:12:00,62.0,55.0,30.27,ENE,67,0.0,0.0,78,-99.99,,,-99.99,,2013-07-11 06:12:00,
2013-07-11 01:22:00,62.0,55.0,30.27,ENE,67,0.0,0.0,79,-99.99,,,-99.99,,2013-07-11 06:22:00,
2013-07-11 01:32:00,62.0,55.0,30.27,ENE,67,0.0,0.0,79,-99.99,,,-99.99,,2013-07-11 06:32:00,
2013-07-11 01:43:00,61.0,54.0,30.27,ENE,67,0.0,0.0,78,-99.99,,,-99.99,,2013-07-11 06:43:00,
2013-07-11 01:52:00,61.0,55.0,30.27,ENE,67,0.0,0.0,80,-99.99,,,-99.99,,2013-07-11 06:52:00,
2013-07-11 02:02:00,61.0,55.0,30.27,ENE,67,0.0,0.0,80,-99.99,,,-99.99,,2013-07-11 07:02:00,
2013-07-11 02:12:00,61.0,55.0,30.27,ENE,67,0.0,0.0,80,-99.99,,,-99.99,,2013-07-11 07:12:00,
2013-07-11 02:22:00,61.0,55.0,30.27,SE,135,0.0,0.0,80,-99.99,,,-99.99,,2013-07-11 07:22:00,
2013-07-11 02:32:00,61.0,55.0,30.27,SE,135,0.0,0.0,80,-99.99,,,-99.99,,2013-07-11 07:32:00,
2013-07-11 02:45:00,60.0,54.0,30.28,SE,135,0.0,0.0,81,-99.99,,,-99.99,,2013-07-11 07:45:00,
2013-07-11 02:53:00,60.0,54.0,30.28,SE,135,0.0,0.0,82,-99.99,,,-99.99,,2013-07-11 07:53:00,
2013-07-11 03:02:00,60.0,54.0,30.28,SE,135,0.0,0.0,82,-99.99,,,-99.99,,2013-07-11 08:02:00,
2013-07-11 03:11:00,60.0,55.0,30.28,SE,135,0.0,0.0,83,-99.99,,,-99.99,,2013-07-11 08:11:00,
2013-07-11 03:22:00,60.0,55.0,30.28,ESE,112,0.0,0.0,84,-99.99,,,-99.99,,2013-07-11 08:22:00,
2013-07-11 03:34:00,60.0,55.0,30.28,ESE,112,0.0,0.0,84,-99.99,,,-99.99,,2013-07-11 08:34:00,
2013-07-11 03:43:00,60.0,55.0,30.29,ESE,112,0.0,0.0,84,-99.99,,,-99.99,,2013-07-11 08:43:00,
2013-07-11 03:53:00,60.0,55.0,30.29,ESE,112,0.0,0.0,84,-99.99,,,-99.99,,2013-07-11 08:53:00,
2013-07-11 04:03:00,60.0,55.0,30.29,ESE,112,0.0,0.0,84,-99.99,,,-99.99,,2013-07-11 09:03:00,
2013-07-11 04:12:00,59.0,54.0,30.29,ESE,112,0.0,0.0,84,-99.99,,,-99.99,,2013-07-11 09:12:00,
2013-07-11 04:21:00,59.0,54.0,30.29,ESE,112,0.0,0.0,85,-99.99,,,-99.99,,2013-07-11 09:21:00,
2013-07-11 04:33:00,59.0,54.0,30.29,ESE,112,0.0,0.0,85,-99.99,,,-99.99,,2013-07-11 09:33:00,
2013-07-11 04:43:00,59.0,54.0,30.29,ESE,112,0.0,0.0,84,-99.99,,,-99.99,,2013-07-11 09:43:00,
2013-07-11 04:53:00,58.0,54.0,30.29,ENE,67,0.0,0.0,85,-99.99,,,-99.99,,2013-07-11 09:53:00,
2013-07-11 05:01:00,58.0,54.0,30.29,ENE,67,0.0,0.0,85,-99.99,,,-99.99,,2013-07-11 10:01:00,
2013-07-11 05:12:00,58.0,54.0,30.30,ENE,67,0.0,0.0,85,-99.99,,,-99.99,,2013-07-11 10:12:00,
2013-07-11 05:22:00,58.0,54.0,30.30,ENE,67,0.0,0.0,86,-99.99,,,-99.99,,2013-07-11 10:22:00,
2013-07-11 05:33:00,58.0,54.0,30.30,ENE,67,0.0,0.0,86,-99.99,,,-99.99,,2013-07-11 10:33:00,
2013-07-11 05:43:00,58.0,54.0,30.31,ENE,67,0.0,0.0,86,-99.99,,,-99.99,,2013-07-11 10:43:00,
2013-07-11 05:52:00,58.0,54.0,30.31,SSE,157,0.0,0.0,86,-99.99,,,-99.99,,2013-07-11 10:52:00,
2013-07-11 06:02:00,58.0,54.0,30.31,SSE,157,0.0,0.0,86,-99.99,,,-99.99,,2013-07-11 11:02:00,
2013-07-11 06:12:00,58.0,54.0,30.31,SE,135,0.0,0.0,86,-99.99,,,-99.99,,2013-07-11 11:12:00,
2013-07-11 06:22:00,58.0,54.0,30.32,SE,135,0.0,0.0,86,-99.99,,,-99.99,,2013-07-11 11:22:00,
2013-07-11 06:32:00,58.0,54.0,30.32,SE,135,0.0,0.0,86,-99.99,,,-99.99,,2013-07-11 11:32:00,
2013-07-11 06:43:00,59.0,55.0,30.32,SE,135,0.0,0.0,87,-99.99,,,-99.99,,2013-07-11 11:43:00,
2013-07-11 06:53:00,60.0,56.0,30.32,SSE,157,3.0,3.0,86,-99.99,,,-99.99,,2013-07-11 11:53:00,
2013-07-11 07:01:00,60.0,56.0,30.32,SSE,157,3.0,3.0,86,-99.99,,,-99.99,,2013-07-11 12:01:00,
2013-07-11 07:12:00,61.0,56.0,30.32,SSE,157,0.0,0.0,85,-99.99,,,-99.99,,2013-07-11 12:12:00,
2013-07-11 07:22:00,62.0,57.0,30.33,SSE,157,0.0,0.0,84,-99.99,,,-99.99,,2013-07-11 12:22:00,
2013-07-11 07:33:00,62.0,57.0,30.33,SSE,157,0.0,0.0,84,-99.99,,,-99.99,,2013-07-11 12:33:00,
2013-07-11 07:43:00,63.0,58.0,30.33,South,180,0.0,2.0,83,-99.99,,,-99.99,,2013-07-11 12:43:00,
2013-07-11 07:54:00,64.0,58.0,30.33,SSE,157,0.0,0.0,82,-99.99,,,-99.99,,2013-07-11 12:54:00,
2013-07-11 08:02:00,64.0,58.0,30.33,SSE,157,0.0,0.0,82,-99.99,,,-99.99,,2013-07-11 13:02:00,
2013-07-11 08:13:00,65.0,59.0,30.33,SSE,157,0.0,0.0,80,-99.99,,,-99.99,,2013-07-11 13:13:00,
2013-07-11 08:23:00,66.0,59.0,30.33,SSW,202,0.0,3.0,78,-99.99,,,-99.99,,2013-07-11 13:23:00,
2013-07-11 08:34:00,66.0,59.0,30.33,SSW,202,0.0,3.0,78,-99.99,,,-99.99,,2013-07-11 13:34:00,
2013-07-11 08:45:00,68.0,60.0,30.33,South,180,0.0,3.0,76,-99.99,,,-99.99,,2013-07-11 13:45:00,
2013-07-11 08:53:00,69.0,61.0,30.33,South,180,0.0,0.0,75,-99.99,,,-99.99,,2013-07-11 13:53:00,
2013-07-11 09:04:00,69.0,61.0,30.33,South,180,0.0,0.0,75,-99.99,,,-99.99,,2013-07-11 14:04:00,
2013-07-11 09:15:00,70.0,61.0,30.33,West,270,0.0,0.0,72,-99.99,,,-99.99,,2013-07-11 14:15:00,
2013-07-11 09:23:00,71.0,61.0,30.33,NW,315,0.0,0.0,70,-99.99,,,-99.99,,2013-07-11 14:23:00,
2013-07-11 09:35:00,71.0,61.0,30.33,NW,315,0.0,0.0,70,-99.99,,,-99.99,,2013-07-11 14:35:00,
2013-07-11 09:45:00,71.0,61.0,30.33,NW,315,0.0,0.0,70,-99.99,,,-99.99,,2013-07-11 14:45:00,
2013-07-11 09:54:00,73.0,60.0,30.33,NNW,337,0.0,3.0,64,-99.99,,,-99.99,,2013-07-11 14:54:00,
2013-07-11 10:13:00,73.0,60.0,30.33,NNW,337,0.0,3.0,64,-99.99,,,-99.99,,2013-07-11 15:13:00,
2013-07-11 10:24:00,75.0,60.0,30.32,NW,315,1.0,2.0,60,-99.99,,,-99.99,,2013-07-11 15:24:00,
2013-07-11 10:37:00,75.0,60.0,30.32,NW,315,1.0,2.0,60,-99.99,,,-99.99,,2013-07-11 15:37:00,
2013-07-11 10:48:00,77.0,62.0,30.33,NW,315,0.0,5.0,60,-99.99,,,-99.99,,2013-07-11 15:48:00,
2013-07-11 10:58:00,77.0,62.0,30.33,WNW,292,0.0,0.0,59,-99.99,,,-99.99,,2013-07-11 15:58:00,
2013-07-11 11:05:00,77.0,62.0,30.33,WNW,292,0.0,0.0,59,-99.99,,,-99.99,,2013-07-11 16:05:00,
2013-07-11 11:14:00,78.0,62.0,30.33,West,270,0.0,11.0,58,-99.99,,,-99.99,,2013-07-11 16:14:00,
2013-07-11 11:24:00,79.0,60.0,30.32,West,270,0.0,4.0,53,-99.99,,,-99.99,,2013-07-11 16:24:00,
2013-07-11 11:35:00,79.0,60.0,30.32,West,270,0.0,4.0,53,-99.99,,,-99.99,,2013-07-11 16:35:00,
2013-07-11 11:46:00,79.0,60.0,30.32,West,270,0.0,1.0,53,-99.99,,,-99.99,,2013-07-11 16:46:00,
2013-07-11 11:54:00,80.0,61.0,30.32,WSW,247,0.0,0.0,53,-99.99,,,-99.99,,2013-07-11 16:54:00,
2013-07-11 12:02:00,80.0,61.0,30.32,WSW,247,0.0,0.0,53,-99.99,,,-99.99,,2013-07-11 17:02:00,
2013-07-11 12:26:00,82.0,61.0,30.32,NNW,337,0.0,6.0,49,-99.99,,,-99.99,,2013-07-11 17:26:00,
2013-07-11 12:38:00,82.0,61.0,30.32,NNW,337,0.0,6.0,49,-99.99,,,-99.99,,2013-07-11 17:38:00,
2013-07-11 12:45:00,83.0,60.0,30.31,West,270,0.0,0.0,46,-99.99,,,-99.99,,2013-07-11 17:45:00,
2013-07-11 12:52:00,83.0,60.0,30.31,NNW,337,0.0,3.0,46,-99.99,,,-99.99,,2013-07-11 17:52:00,
2013-07-11 13:05:00,83.0,60.0,30.31,NNW,337,0.0,3.0,46,-99.99,,,-99.99,,2013-07-11 18:05:00,
2013-07-11 13:14:00,84.0,60.0,30.31,West,270,0.0,0.0,45,-99.99,,,-99.99,,2013-07-11 18:14:00,
2013-07-11 13:24:00,84.0,59.0,30.31,WSW,247,0.0,2.0,43,-99.99,,,-99.99,,2013-07-11 18:24:00,
2013-07-11 13:35:00,84.0,59.0,30.31,WSW,247,0.0,2.0,43,-99.99,,,-99.99,,2013-07-11 18:35:00,
2013-07-11 13:45:00,84.0,59.0,30.30,WNW,292,0.0,3.0,43,-99.99,,,-99.99,,2013-07-11 18:45:00,
2013-07-11 13:53:00,85.0,60.0,30.30,NNE,22,1.0,9.0,43,-99.99,,,-99.99,,2013-07-11 18:53:00,
2013-07-11 14:04:00,85.0,60.0,30.30,NNE,22,1.0,9.0,43,-99.99,,,-99.99,,2013-07-11 19:04:00,
2013-07-11 14:13:00,85.0,59.0,30.30,ENE,67,0.0,1.0,42,-99.99,,,-99.99,,2013-07-11 19:13:00,
2013-07-11 14:23:00,86.0,58.0,30.30,SW,225,0.0,1.0,39,-99.99,,,-99.99,,2013-07-11 19:23:00,
2013-07-11 14:38:00,86.0,58.0,30.30,SW,225,0.0,1.0,39,-99.99,,,-99.99,,2013-07-11 19:38:00,
2013-07-11 14:44:00,86.0,58.0,30.29,NNW,337,0.0,9.0,39,-99.99,,,-99.99,,2013-07-11 19:44:00,
2013-07-11 15:05:00,87.0,58.0,30.29,NNW,337,0.0,2.0,38,-99.99,,,-99.99,,2013-07-11 20:05:00,
2013-07-11 15:13:00,87.0,58.0,30.28,WNW,292,1.0,7.0,38,-99.99,,,-99.99,,2013-07-11 20:13:00,
2013-07-11 15:25:00,86.0,57.0,30.28,SW,225,4.0,7.0,38,-99.99,,,-99.99,,2013-07-11 20:25:00,
2013-07-11 15:46:00,86.0,57.0,30.28,SW,225,1.0,7.0,38,-99.99,,,-99.99,,2013-07-11 20:46:00,
2013-07-11 15:53:00,86.0,57.0,30.28,South,180,0.0,3.0,38,-99.99,,,-99.99,,2013-07-11 20:53:00,
2013-07-11 16:05:00,86.0,57.0,30.28,South,180,0.0,3.0,38,-99.99,,,-99.99,,2013-07-11 21:05:00,
2013-07-11 16:15:00,87.0,58.0,30.27,WSW,247,1.0,7.0,37,-99.99,,,-99.99,,2013-07-11 21:15:00,
2013-07-11 16:24:00,87.0,58.0,30.27,NNW,337,0.0,6.0,37,-99.99,,,-99.99,,2013-07-11 21:24:00,
2013-07-11 16:35:00,87.0,58.0,30.27,NNW,337,0.0,6.0,37,-99.99,,,-99.99,,2013-07-11 21:35:00,
2013-07-11 16:45:00,89.0,60.0,30.27,SW,225,4.0,4.0,38,-99.99,,,-99.99,,2013-07-11 21:45:00,
2013-07-11 17:05:00,88.0,60.0,30.27,SW,225,2.0,9.0,39,-99.99,,,-99.99,,2013-07-11 22:05:00,
2013-07-11 17:16:00,91.0,59.0,30.27,WSW,247,4.0,8.0,35,-99.99,,,-99.99,,2013-07-11 22:16:00,
2013-07-11 17:34:00,92.0,60.0,30.26,WSW,247,0.0,3.0,35,-99.99,,,-99.99,,2013-07-11 22:34:00,
2013-07-11 17:46:00,90.0,59.0,30.26,SW,225,5.0,5.0,36,-99.99,,,-99.99,,2013-07-11 22:46:00,
2013-07-11 17:54:00,88.0,58.0,30.26,WSW,247,2.0,5.0,37,-99.99,,,-99.99,,2013-07-11 22:54:00,
2013-07-11 18:06:00,88.0,58.0,30.26,WSW,247,2.0,5.0,37,-99.99,,,-99.99,,2013-07-11 23:06:00,
2013-07-11 18:13:00,90.0,60.0,30.26,SW,225,5.0,5.0,37,-99.99,,,-99.99,,2013-07-11 23:13:00,
2013-07-11 18:46:00,88.0,59.0,30.25,SSE,157,4.0,8.0,38,-99.99,,,-99.99,,2013-07-11 23:46:00,
2013-07-11 18:54:00,87.0,59.0,30.25,SW,225,3.0,8.0,39,-99.99,,,-99.99,,2013-07-11 23:54:00,
2013-07-11 19:05:00,87.0,59.0,30.25,SW,225,3.0,8.0,39,-99.99,,,-99.99,,2013-07-12 00:05:00,
2013-07-11 19:13:00,86.0,60.0,30.25,SW,225,8.0,8.0,41,-99.99,,,-99.99,,2013-07-12 00:13:00,
2013-07-11 19:24:00,86.0,60.0,30.25,SW,225,8.0,8.0,41,-99.99,,,-99.99,,2013-07-12 00:24:00,
2013-07-11 19:35:00,86.0,60.0,30.25,SW,225,8.0,8.0,41,-99.99,,,-99.99,,2013-07-12 00:35:00,
2013-07-11 19:44:00,84.0,59.0,30.25,SSW,202,6.0,8.0,43,-99.99,,,-99.99,,2013-07-12 00:44:00,
2013-07-11 19:55:00,83.0,59.0,30.25,SW,225,3.0,8.0,44,-99.99,,,-99.99,,2013-07-12 00:55:00,
2013-07-11 20:04:00,83.0,59.0,30.25,SW,225,3.0,8.0,44,-99.99,,,-99.99,,2013-07-12 01:04:00,
2013-07-11 20:13:00,81.0,58.0,30.25,SW,225,7.0,8.0,45,-99.99,,,-99.99,,2013-07-12 01:13:00,
2013-07-11 20:26:00,81.0,58.0,30.25,SSW,202,4.0,7.0,46,-99.99,,,-99.99,,2013-07-12 01:26:00,
2013-07-11 20:36:00,81.0,58.0,30.25,SSW,202,4.0,7.0,46,-99.99,,,-99.99,,2013-07-12 01:36:00,
2013-07-11 20:46:00,80.0,58.0,30.25,SSW,202,1.0,5.0,47,-99.99,,,-99.99,,2013-07-12 01:46:00,
2013-07-11 20:55:00,78.0,57.0,30.24,SW,225,0.0,4.0,49,-99.99,,,-99.99,,2013-07-12 01:55:00,
2013-07-11 21:06:00,78.0,57.0,30.24,SW,225,0.0,4.0,49,-99.99,,,-99.99,,2013-07-12 02:06:00,
2013-07-11 21:15:00,77.0,57.0,30.25,SSE,157,0.0,1.0,51,-99.99,,,-99.99,,2013-07-12 02:15:00,
2013-07-11 21:24:00,75.0,57.0,30.25,SSE,157,0.0,0.0,53,-99.99,,,-99.99,,2013-07-12 02:24:00,
2013-07-11 21:35:00,75.0,57.0,30.25,SSE,157,0.0,0.0,53,-99.99,,,-99.99,,2013-07-12 02:35:00,
2013-07-11 22:03:00,73.0,59.0,30.26,SE,135,0.0,0.0,61,-99.99,,,-99.99,,2013-07-12 03:03:00,
2013-07-11 22:14:00,72.0,58.0,30.26,SE,135,0.0,0.0,62,-99.99,,,-99.99,,2013-07-12 03:14:00,
2013-07-11 22:37:00,72.0,58.0,30.26,SE,135,0.0,0.0,62,-99.99,,,-99.99,,2013-07-12 03:37:00,
2013-07-11 22:44:00,72.0,58.0,30.26,SE,135,0.0,0.0,62,-99.99,,,-99.99,,2013-07-12 03:44:00,
2013-07-11 22:54:00,70.0,59.0,30.26,ESE,112,0.0,0.0,68,-99.99,,,-99.99,,2013-07-12 03:54:00,
2013-07-11 23:01:00,70.0,59.0,30.26,ESE,112,0.0,0.0,68,-99.99,,,-99.99,,2013-07-12 04:01:00,
2013-07-11 23:11:00,69.0,58.0,30.27,ESE,112,0.0,0.0,69,-99.99,,,-99.99,,2013-07-12 04:11:00,
2013-07-11 23:22:00,69.0,59.0,30.27,ESE,112,0.0,0.0,70,-99.99,,,-99.99,,2013-07-12 04:22:00,
2013-07-11 23:32:00,69.0,59.0,30.27,ESE,112,0.0,0.0,70,-99.99,,,-99.99,,2013-07-12 04:32:00,
2013-07-11 23:43:00,68.0,59.0,30.26,ESE,112,0.0,0.0,72,-99.99,,,-99.99,,2013-07-12 04:43:00,
2013-07-11 23:53:00,68.0,59.0,30.27,ESE,112,0.0,0.0,73,-99.99,,,-99.99,,2013-07-12 04:53:00,